This demonstration page uses our WeatherBlox Daily Observations layout. Learn more.

Left ArrowRight Arrow

Hourly Observations for March 30, 2018

Temp ( °F °C ) Dew Point ( °F °C ) Humidity (%) Winds ( mph kmh ) Pressure ( in mb ) Visibility ( mi km ) Precip ( " mm )
12:53 am 00:53 Partly Cloudy 33 0.6 26 -3.3 75 75 N 5 7 30.30 1026 10 16 0.00 0.00
1:53 am 01:53 Clear 27 -2.8 24 -4.4 89 89 WNW 5 7 30.31 1027 10 16 0.00 0.00
2:53 am 02:53 Clear 29 -1.7 25 -3.9 85 85 W 5 7 30.30 1026 10 16 0.00 0.00
3:53 am 03:53 Clear 28 -2.2 25 -3.9 88 88 SW 3 6 30.30 1026 10 16 0.00 0.00
4:53 am 04:53 Clear 25 -3.9 22 -5.6 88 88 Calm 30.30 1026 10 16 0.00 0.00
5:53 am 05:53 Clear 25 -3.9 23 -5 92 92 Calm 30.30 1026 10 16 0.00 0.00
6:53 am 06:53 Clear 24 -4.4 20 -6.7 84 84 Calm 30.31 1026 10 16 0.00 0.00
7:53 am 07:53 Sunny 24 -4.4 21 -6.1 88 88 Calm 30.32 1027 10 16 0.00 0.00
8:53 am 08:53 Sunny 32 0 26 -3.3 79 79 Calm 30.31 1027 10 16 0.00 0.00
9:53 am 09:53 Sunny 38 3.3 27 -2.8 65 65 SSW 9 15 30.30 1026 10 16 0.00 0.00
10:53 am 10:53 Sunny 41 5 27 -2.8 57 57 SSW 12 19 30.29 1026 10 16 0.00 0.00
11:53 am 11:53 Sunny 47 8.3 29 -1.7 50 50 SW 10 17 30.26 1025 10 16 0.00 0.00
12:53 pm 12:53 Sunny 52 11.1 31 -0.6 45 45 WSW 12 19 30.22 1023 10 16 0.00 0.00
1:53 pm 13:53 Sunny 56 13.3 29 -1.7 36 36 WSW 13 20 30.18 1022 10 16 0.00 0.00
2:53 pm 14:53 Sunny 56 13.3 28 -2.2 34 34 SSW 12 19 30.14 1021 10 16 0.00 0.00
3:53 pm 15:53 Sunny 57 13.9 27 -2.8 32 32 SSW 16 26 30.09 1019 10 16 0.00 0.00
4:53 pm 16:53 Sunny 59 15 26 -3.3 28 28 SSW 17 28 30.05 1018 10 16 0.00 0.00
5:53 pm 17:53 Sunny 60 15.6 24 -4.4 25 25 S 16 26 30.00 1016 10 16 0.00 0.00
6:53 pm 18:53 Partly Cloudy 60 15.6 26 -3.3 27 27 S 14 22 29.96 1014 10 16 0.00 0.00
7:53 pm 19:53 Sunny 57 13.9 28 -2.2 33 33 S 12 19 29.92 1013 10 16 0.00 0.00
8:53 pm 20:53 Clear 54 12.2 31 -0.6 42 42 S 10 17 29.89 1012 10 16 0.00 0.00
9:53 pm 21:53 Clear 55 12.8 34 1.1 45 45 S 17 28 29.86 1011 10 16 0.00 0.00
10:53 pm 22:53 Clear 53 11.7 37 2.8 55 55 SSW 20 31 29.86 1011 10 16 0.00 0.00
11:53 pm 23:53 Clear 52 11.1 38 3.3 59 59 S 18 30 29.84 1011 10 16 0.00 0.00

Powered by AerisWeather